STARLINK-32653 (62199 NORAD) Tracking and Keplerian Element Data

This shows tracking and keplerian element data for the satellite.

Feedback or suggestion? Click here.




ElementValue
Catalog62199
NameSTARLINK-32653
Epoch Orbit1079
Epoch Day34.92068576
Epoch Year2025
RAAN0.2127
Inclination43.0054
Eccentricity0.0001447
Argument of Perigee252.2496
Mean Anonmoly107.8202
Mean Motion15.40695949
Decay Rate3.87E-06
L11 62199U 24229H 25034.92068576 .00000387 00000+0 16523-4 0 9991
L22 62199 43.0054 0.2127 0001447 252.2496 107.8202 15.40695949 10792



Live tracking and technical data element details for STARLINK-32653 (NORAD 62199). STARLINK-32653 can be tracked NOW for your location showing map with azimuth and elevation plus other details from your city location.







IsCatalogInMostPopularTable: catalog: 62199, numindb: 16
Update: records affected: 1



GetName: 62199 STARLINK-32653

Hit Count: updated at: Sun, 18 May 2025 23:41:34 GMT